Tracking 23758 objects as of 27-Oct-2021
HD Live streaming from Space Station
objects crossing your sky now

RISESAT

Track RISESAT now!
10-day predictions


NORAD ID: 43934
Int'l Code: 2019-003C
Perigee: 494.8 km
Apogee: 515.1 km
Inclination: 97.2 °
Period: 94.6 minutes
Semi major axis: 6875 km
RCS: Unknown
Launch date: January 18, 2019
Source: Japan (JPN)
Launch site: KAGOSHIMA SPACE CENTER UNIVERSITY OF TOKYO (KSCUT)
aabbcc
Your satellite tracking list
Your tracking list is empty




NASA's NSSDC Master Catalog

Two Line Element Set (TLE):
1 43934U 19003C   21300.45142694  .00000829  00000-0  38409-4 0  9994
2 43934  97.1644 335.0701 0014737 283.3862 187.3751 15.22653447154145
Source of the keplerian elements: AFSPC